World > North America > United States > South Carolina > Martin

Martin, SC Hourly Weather Conditions

Feedback E-mail the Weather

Quick WX

Martin, SC Weather Maps

°F °C°F °C
Martin Weather Map
UTC Time: 2/9/2023, 04:57
Your Time:

Martin, SC Regional Weather

Expires:202302090500;;043004
ASUS42 KCHS 090425
RWRCHS

Regional Weather Roundup
National Weather Service Charleston SC
1100 PM EST WED FEB 08 2023

NOTE: "fair" indicates few or no clouds below 12,000 feet with no
significant weather and/or obstructions to visibility.

Not all stations are quality controlled. Use data with caution,
especially dewpoint observations.


SCZ027-030-031-034>040-042>050-090500-
...Southeast South Carolina...
  
CITY           SKY/WX    TMP DP  RH WIND       PRES   REMARKS
N Charleston   PTCLDY    57  53  86 E3        30.27F                  
Waterfront Prk   N/A     57  54  89 CALM      30.14F                  
Mount Pleasant FAIR      54  52  94 CALM      30.27F                  
Johns Island   FAIR      54  54 100 CALM      30.27F FOG              
Pinopolis        N/A     61  55  82 VRB3        N/A                   
Moncks Corner  FAIR      52  50  93 CALM      30.27S                  
Summerville    FAIR      54  54 100 CALM      30.27R                  
Beaufort MCAS  CLEAR     58  55  90 S5        30.26F                  
Beaufort Arpt  FAIR      54  54 100 SE5       30.26F                  
Hilton Head Is CLEAR     63  57  82 CALM      30.27                   
Walterboro     CLEAR     50  50 100 CALM      30.28R                  
Allendale      FAIR      55  50  82 CALM      30.25S                  

...Southern Midlands and Pee Dee...
  
CITY           SKY/WX    TMP DP  RH WIND       PRES   REMARKS
Georgetown     FAIR      52  52 100 CALM      30.28F FOG              
Kingstree      FAIR      52  48  87 CALM      30.27F                  
Orangeburg     CLEAR     57  52  83 CALM      30.26F                  
Barnwell       FAIR      59  50  72 CALM      30.25F                  
Aiken          FAIR      59  50  72 SE8       30.25S                  
Manning        FAIR      50  48  93 CALM      30.27S                  
Columbia       MOCLDY    56  52  86 CALM      30.25S                  
Sumter         CLEAR     52  50  93 CALM      30.25S                  
Florence       PTCLDY    53  49  86 CALM      30.27F                  
Myrtle Beach   PTCLDY    61  58  90 S9        30.29F                  
N Myrtle Beach PTCLDY    56  54  93 SW6       30.29S                  

$$
 

SKY/WX - Weather  TMP - Temperature  DP - Dew Point  RH - Humidity
WIND - Wind Direction/Speed PRES - Barometric Pressure VSB - Visibility
WCI - Wind Chill Index E13G22 Wind - East Wind 13 mph/Gusts of 22 mph

Trending Headlines

Trending Entertainment Headlines

Martin Radar Loop

Use the map search tool if you want to place a location marker on the radar map...

Martin Quick Facts

National Two Day Weather Forecast


E-mail the Martin Weather Forecast

Voice your opinion or tell us about page issues...